| time (UTC) | temp C | wind direction | speed KPH | gust KPH | rain 1hr cm | rain 24hr cm | rain mn cm | humidity % | barometer mb |
| 20260505093002 | 15 | 146 | 3.2 | 9.7 | 0.00 | 0.00 | 0.00 | 81 | 1001.8 |
| 20260505092002 | 15 | 156 | 1.6 | 8.0 | 0.00 | 0.00 | 0.00 | 82 | 1002.0 |
| 20260505091002 | 15 | 186 | 0.0 | 3.2 | 0.00 | 0.00 | 0.00 | 83 | 1002.2 |
| 20260505090502 | 15 | 164 | 1.6 | 4.8 | 0.00 | 0.00 | 0.00 | 83 | 1002.1 |
| 20260505090002 | 15 | 198 | 1.6 | 8.0 | 0.00 | 0.00 | 0.00 | 84 | 1002.2 |
| 20260505085502 | 14 | 162 | 0.0 | 3.2 | 0.00 | 0.00 | 0.00 | 84 | 1002.3 |
| 20260505085002 | 14 | 205 | 0.0 | 3.2 | 0.00 | 0.00 | 0.00 | 85 | 1002.3 |
| 20260505084502 | 14 | 131 | 0.0 | 3.2 | 0.00 | 0.00 | 0.00 | 85 | 1002.3 |
| 20260505084002 | 15 | 143 | 1.6 | 4.8 | 0.00 | 0.00 | 0.00 | 86 | 1002.3 |
| 20260505083502 | 14 | 133 | 1.6 | 4.8 | 0.00 | 0.00 | 0.00 | 86 | 1002.4 |
| 20260505083002 | 14 | 147 | 1.6 | 3.2 | 0.00 | 0.00 | 0.00 | 86 | 1002.3 |
| 20260505082502 | 15 | 51 | 0.0 | 1.6 | 0.00 | 0.00 | 0.00 | 86 | 1002.4 |
| 20260505082002 | 15 | 51 | 0.0 | 0.0 | 0.00 | 0.00 | 0.00 | 85 | 1002.4 |
| 20260505081502 | 15 | 51 | 0.0 | 0.0 | 0.00 | 0.00 | 0.00 | 85 | 1002.5 |
| 20260505081002 | 15 | 51 | 0.0 | 0.0 | 0.00 | 0.00 | 0.00 | 85 | 1002.5 |
| 20260505080502 | 15 | 51 | 0.0 | 1.6 | 0.00 | 0.00 | 0.00 | 84 | 1002.6 |
| 20260505080002 | 15 | 296 | 0.0 | 0.0 | 0.00 | 0.00 | 0.00 | 84 | 1002.7 |
| 20260505075502 | 15 | 295 | 0.0 | 0.0 | 0.00 | 0.00 | 0.00 | 83 | 1002.8 |
| 20260505075002 | 16 | 299 | 0.0 | 1.6 | 0.00 | 0.00 | 0.00 | 82 | 1002.9 |
| 20260505074002 | 16 | 164 | 1.6 | 3.2 | 0.00 | 0.00 | 0.00 | 80 | 1002.9 |
| 20260505073502 | 16 | 215 | 3.2 | 4.8 | 0.00 | 0.00 | 0.00 | 78 | 1002.7 |
| 20260505073002 | 17 | 220 | 1.6 | 9.7 | 0.00 | 0.00 | 0.00 | 76 | 1002.6 |
| 20260505072501 | 17 | 214 | 3.2 | 19.3 | 0.00 | 0.00 | 0.00 | 73 | 1002.8 |
| 20260505072002 | 18 | 213 | 4.8 | 19.3 | 0.00 | 0.00 | 0.00 | 70 | 1002.8 |
| 20260505071002 | 18 | 202 | 4.8 | 19.3 | 0.00 | 0.00 | 0.00 | 68 | 1002.8 |
| 20260505070502 | 18 | 205 | 4.8 | 19.3 | 0.00 | 0.00 | 0.00 | 68 | 1002.8 |
| 20260505070002 | 18 | 201 | 4.8 | 11.3 | 0.00 | 0.00 | 0.00 | 68 | 1002.9 |
| 20260505065502 | 17 | 228 | 3.2 | 19.3 | 0.00 | 0.00 | 0.00 | 69 | 1002.8 |
| 20260505065002 | 17 | 184 | 3.2 | 9.7 | 0.00 | 0.00 | 0.00 | 69 | 1002.7 |
| 20260505064502 | 17 | 119 | 1.6 | 4.8 | 0.00 | 0.00 | 0.00 | 69 | 1002.7 |
| 20260505064002 | 17 | 180 | 1.6 | 4.8 | 0.00 | 0.00 | 0.00 | 69 | 1002.8 |
| 20260505063502 | 17 | 139 | 0.0 | 4.8 | 0.00 | 0.00 | 0.00 | 68 | 1002.7 |
| 20260505063002 | 17 | 131 | 1.6 | 4.8 | 0.00 | 0.00 | 0.00 | 68 | 1002.8 |
| 20260505062002 | 17 | 174 | 3.2 | 9.7 | 0.00 | 0.00 | 0.00 | 68 | 1002.8 |
| 20260505061502 | 17 | 179 | 3.2 | 11.3 | 0.00 | 0.00 | 0.00 | 68 | 1002.8 |
| 20260505061002 | 17 | 248 | 1.6 | 4.8 | 0.00 | 0.00 | 0.00 | 68 | 1002.8 |
| 20260505060503 | 17 | 213 | 4.8 | 9.7 | 0.00 | 0.00 | 0.00 | 68 | 1002.7 |
| 20260505060002 | 17 | 165 | 1.6 | 8.0 | 0.00 | 0.00 | 0.00 | 68 | 1002.6 |
| 20260505055503 | 17 | 271 | 1.6 | 9.7 | 0.00 | 0.00 | 0.00 | 68 | 1002.7 |
| 20260505054502 | 17 | 230 | 3.2 | 9.7 | 0.00 | 0.00 | 0.00 | 67 | 1002.7 |
| 20260505054003 | 17 | 147 | 1.6 | 4.8 | 0.00 | 0.00 | 0.00 | 66 | 1002.8 |
| 20260505053502 | 17 | 174 | 3.2 | 11.3 | 0.00 | 0.00 | 0.00 | 66 | 1002.8 |
| 20260505053003 | 17 | 165 | 1.6 | 8.0 | 0.00 | 0.00 | 0.00 | 65 | 1002.8 |
| 20260505052502 | 17 | 193 | 1.6 | 8.0 | 0.00 | 0.00 | 0.00 | 65 | 1002.7 |
| 20260505052002 | 17 | 209 | 1.6 | 4.8 | 0.00 | 0.00 | 0.00 | 64 | 1002.6 |
| 20260505050502 | 17 | 167 | 3.2 | 11.3 | 0.00 | 0.00 | 0.00 | 64 | 1002.7 |
| 20260505041503 | 17 | 178 | 1.6 | 3.2 | 0.00 | 0.00 | 0.00 | 63 | 1003.0 |
| 20260505041002 | 17 | 139 | 0.0 | 3.2 | 0.00 | 0.00 | 0.00 | 62 | 1003.2 |
| 20260505040502 | 17 | 22 | 0.0 | 1.6 | 0.00 | 0.00 | 0.00 | 62 | 1003.3 |
| 20260505035502 | 17 | 235 | 0.0 | 4.8 | 0.00 | 0.00 | 0.00 | 62 | 1003.4 |
| 20260505035002 | 16 | 173 | 1.6 | 8.0 | 0.00 | 0.00 | 0.00 | 62 | 1003.3 |
| 20260505034502 | 16 | 224 | 1.6 | 4.8 | 0.00 | 0.00 | 0.00 | 61 | 1003.3 |
| 20260505034003 | 15 | 171 | 1.6 | 4.8 | 0.00 | 0.00 | 0.00 | 62 | 1003.3 |
| 20260505033502 | 14 | 180 | 4.8 | 16.1 | 0.00 | 0.00 | 0.00 | 65 | 1003.3 |
| 20260505033003 | 13 | 170 | 0.0 | 3.2 | 0.00 | 0.00 | 0.00 | 69 | 1003.2 |
| 20260505032502 | 13 | 176 | 0.0 | 3.2 | 0.00 | 0.00 | 0.00 | 69 | 1003.1 |
| 20260505032002 | 12 | 168 | 0.0 | 1.6 | 0.00 | 0.00 | 0.00 | 70 | 1003.1 |
| 20260505031502 | 12 | 203 | 0.0 | 0.0 | 0.00 | 0.00 | 0.00 | 70 | 1003.2 |
| 20260505031003 | 12 | 203 | 0.0 | 0.0 | 0.00 | 0.00 | 0.00 | 71 | 1003.2 |
| 20260505030502 | 12 | 203 | 0.0 | 0.0 | 0.00 | 0.00 | 0.00 | 71 | 1003.2 |
| 20260505025502 | 12 | 203 | 0.0 | 0.0 | 0.00 | 0.00 | 0.00 | 71 | 1003.1 |
| 20260505025003 | 12 | 203 | 0.0 | 1.6 | 0.00 | 0.00 | 0.00 | 70 | 1003.0 |
| 20260505024503 | 12 | 203 | 0.0 | 1.6 | 0.00 | 0.00 | 0.00 | 70 | 1003.0 |
| 20260505024002 | 12 | 203 | 0.0 | 1.6 | 0.00 | 0.00 | 0.00 | 70 | 1003.1 |
| 20260505022502 | 12 | 203 | 0.0 | 0.0 | 0.00 | 0.00 | 0.00 | 70 | 1003.4 |
| 20260505022002 | 12 | 203 | 0.0 | 1.6 | 0.00 | 0.00 | 0.00 | 69 | 1003.4 |
| 20260505021003 | 13 | 297 | 0.0 | 1.6 | 0.00 | 0.00 | 0.00 | 68 | 1003.5 |
| 20260505020502 | 13 | 297 | 0.0 | 0.0 | 0.00 | 0.00 | 0.00 | 69 | 1003.6 |
| 20260505020002 | 13 | 297 | 0.0 | 1.6 | 0.00 | 0.00 | 0.00 | 68 | 1003.7 |
| 20260505015503 | 13 | 297 | 0.0 | 0.0 | 0.00 | 0.00 | 0.00 | 66 | 1003.8 |
| 20260505015002 | 14 | 297 | 0.0 | 0.0 | 0.00 | 0.00 | 0.00 | 63 | 1003.8 |
| 20260505014502 | 14 | 297 | 0.0 | 1.6 | 0.00 | 0.00 | 0.00 | 61 | 1003.7 |
| 20260505014003 | 15 | 297 | 0.0 | 1.6 | 0.00 | 0.00 | 0.00 | 59 | 1003.6 |
| 20260505013003 | 15 | 297 | 0.0 | 1.6 | 0.00 | 0.00 | 0.00 | 56 | 1003.5 |
| 20260505012502 | 15 | 297 | 0.0 | 1.6 | 0.00 | 0.00 | 0.00 | 55 | 1003.4 |
| 20260505012003 | 15 | 297 | 0.0 | 0.0 | 0.00 | 0.00 | 0.00 | 54 | 1003.4 |
| 20260505011503 | 16 | 297 | 0.0 | 1.6 | 0.00 | 0.00 | 0.00 | 54 | 1003.4 |
| 20260505011002 | 16 | 297 | 0.0 | 0.0 | 0.00 | 0.00 | 0.00 | 53 | 1003.4 |
| 20260505010503 | 16 | 297 | 0.0 | 1.6 | 0.00 | 0.00 | 0.00 | 52 | 1003.4 |
| 20260505005502 | 17 | 297 | 0.0 | 0.0 | 0.00 | 0.00 | 0.00 | 50 | 1003.3 |
| 20260505005003 | 17 | 297 | 0.0 | 1.6 | 0.00 | 0.00 | 0.00 | 49 | 1003.3 |
| 20260505003503 | 17 | 298 | 0.0 | 1.6 | 0.00 | 0.00 | 0.00 | 48 | 1003.2 |
| 20260505003002 | 17 | 298 | 0.0 | 1.6 | 0.00 | 0.00 | 0.00 | 47 | 1003.3 |
| 20260505002503 | 17 | 298 | 1.6 | 3.2 | 0.00 | 0.00 | 0.00 | 49 | 1003.3 |
| 20260505002002 | 18 | 306 | 1.6 | 3.2 | 0.00 | 0.00 | 0.00 | 49 | 1003.3 |
| 20260505000003 | 20 | 169 | 0.0 | 0.0 | 0.00 | 0.00 | 0.00 | 41 | 1003.1 |
| 20260504235502 | 20 | 217 | 0.0 | 0.0 | 0.00 | 0.00 | 0.00 | 40 | 1003.0 |
| 20260504235003 | 21 | 217 | 0.0 | 0.0 | 0.00 | 0.00 | 0.00 | 39 | 1003.0 |
| 20260504234502 | 21 | 217 | 0.0 | 0.0 | 0.00 | 0.00 | 0.00 | 39 | 1003.1 |
| 20260504234003 | 21 | 217 | 0.0 | 0.0 | 0.00 | 0.00 | 0.00 | 38 | 1003.1 |
| 20260504233503 | 22 | 217 | 0.0 | 0.0 | 0.00 | 0.00 | 0.00 | 37 | 1003.1 |
| 20260504233003 | 22 | 246 | 0.0 | 3.2 | 0.00 | 0.00 | 0.00 | 37 | 1003.1 |
| 20260504232502 | 22 | 179 | 0.0 | 1.6 | 0.00 | 0.00 | 0.00 | 36 | 1003.1 |
| 20260504232003 | 22 | 143 | 0.0 | 4.8 | 0.00 | 0.00 | 0.00 | 36 | 1003.0 |
| 20260504231503 | 22 | 205 | 3.2 | 8.0 | 0.00 | 0.00 | 0.00 | 35 | 1003.0 |
| 20260504231003 | 22 | 225 | 0.0 | 4.8 | 0.00 | 0.00 | 0.00 | 36 | 1003.0 |
| 20260504230503 | 22 | 224 | 3.2 | 4.8 | 0.00 | 0.00 | 0.00 | 35 | 1003.0 |
| 20260504225503 | 23 | 216 | 3.2 | 4.8 | 0.00 | 0.00 | 0.00 | 35 | 1003.0 |
| 20260504225003 | 24 | 166 | 1.6 | 8.0 | 0.00 | 0.00 | 0.00 | 33 | 1002.9 |
| 20260504224502 | 24 | 203 | 3.2 | 4.8 | 0.00 | 0.00 | 0.00 | 33 | 1002.8 |
| 20260504224003 | 24 | 154 | 3.2 | 12.9 | 0.00 | 0.00 | 0.00 | 33 | 1002.9 |
| 20260504223502 | 24 | 246 | 1.6 | 4.8 | 0.00 | 0.00 | 0.00 | 35 | 1002.9 |
| 20260504223002 | 24 | 259 | 4.8 | 14.5 | 0.00 | 0.00 | 0.00 | 34 | 1002.9 |
| 20260504222503 | 24 | 152 | 1.6 | 8.0 | 0.00 | 0.00 | 0.00 | 34 | 1003.0 |
| 20260504222003 | 24 | 226 | 3.2 | 12.9 | 0.00 | 0.00 | 0.00 | 33 | 1003.0 |
| 20260504221502 | 24 | 205 | 4.8 | 11.3 | 0.00 | 0.00 | 0.00 | 34 | 1003.0 |
| 20260504220503 | 24 | 208 | 6.4 | 16.1 | 0.00 | 0.00 | 0.00 | 32 | 1003.1 |
| 20260504220003 | 24 | 244 | 4.8 | 11.3 | 0.00 | 0.00 | 0.00 | 34 | 1003.0 |
| 20260504215503 | 24 | 203 | 3.2 | 14.5 | 0.00 | 0.00 | 0.00 | 34 | 1003.1 |
| 20260504215003 | 24 | 233 | 4.8 | 9.7 | 0.00 | 0.00 | 0.00 | 35 | 1003.1 |
| 20260504214503 | 24 | 220 | 1.6 | 11.3 | 0.00 | 0.00 | 0.00 | 36 | 1003.3 |
| 20260504214003 | 24 | 225 | 8.0 | 19.3 | 0.00 | 0.00 | 0.00 | 35 | 1003.2 |
| 20260504213503 | 24 | 233 | 3.2 | 9.7 | 0.00 | 0.00 | 0.00 | 37 | 1003.2 |
| 20260504213003 | 24 | 286 | 8.0 | 22.5 | 0.00 | 0.00 | 0.00 | 33 | 1003.2 |
| 20260504212503 | 24 | 309 | 3.2 | 14.5 | 0.00 | 0.00 | 0.00 | 35 | 1003.3 |
| 20260504212002 | 25 | 223 | 3.2 | 12.9 | 0.00 | 0.00 | 0.00 | 36 | 1003.2 |
| 20260504211503 | 24 | 198 | 3.2 | 12.9 | 0.00 | 0.00 | 0.00 | 36 | 1003.4 |
| 20260504211003 | 24 | 245 | 3.2 | 9.7 | 0.00 | 0.00 | 0.00 | 37 | 1003.5 |
| 20260504210003 | 23 | 245 | 9.7 | 20.9 | 0.00 | 0.00 | 0.00 | 35 | 1003.7 |
| 20260504205503 | 24 | 301 | 6.4 | 22.5 | 0.00 | 0.00 | 0.00 | 34 | 1003.6 |
| 20260504205003 | 24 | 244 | 8.0 | 19.3 | 0.00 | 0.00 | 0.00 | 36 | 1003.7 |
| 20260504204503 | 24 | 223 | 8.0 | 16.1 | 0.00 | 0.00 | 0.00 | 37 | 1003.7 |
| 20260504204003 | 24 | 193 | 3.2 | 12.9 | 0.00 | 0.00 | 0.00 | 38 | 1003.6 |
| 20260504203503 | 23 | 215 | 4.8 | 14.5 | 0.00 | 0.00 | 0.00 | 36 | 1003.7 |
| 20260504203003 | 23 | 235 | 4.8 | 12.9 | 0.00 | 0.00 | 0.00 | 37 | 1003.7 |
| 20260504202503 | 23 | 191 | 4.8 | 14.5 | 0.00 | 0.00 | 0.00 | 35 | 1003.8 |
| 20260504201003 | 23 | 174 | 4.8 | 20.9 | 0.00 | 0.00 | 0.00 | 39 | 1004.0 |
| 20260504200503 | 23 | 249 | 9.7 | 20.9 | 0.00 | 0.00 | 0.00 | 37 | 1004.0 |
| 20260504200002 | 23 | 226 | 8.0 | 19.3 | 0.00 | 0.00 | 0.00 | 38 | 1004.1 |
| 20260504195503 | 23 | 260 | 9.7 | 20.9 | 0.00 | 0.00 | 0.00 | 35 | 1004.2 |
| 20260504194503 | 23 | 252 | 6.4 | 19.3 | 0.00 | 0.00 | 0.00 | 37 | 1004.3 |
| 20260504194003 | 23 | 214 | 8.0 | 20.9 | 0.00 | 0.00 | 0.00 | 38 | 1004.4 |
| 20260504193503 | 23 | 229 | 8.0 | 24.1 | 0.00 | 0.00 | 0.00 | 38 | 1004.4 |
| 20260504193003 | 23 | 261 | 8.0 | 16.1 | 0.00 | 0.00 | 0.00 | 40 | 1004.5 |
| 20260504192503 | 23 | 289 | 4.8 | 20.9 | 0.00 | 0.00 | 0.00 | 41 | 1004.5 |
| 20260504192003 | 22 | 281 | 9.7 | 35.4 | 0.00 | 0.00 | 0.00 | 40 | 1004.4 |
| 20260504191503 | 23 | 248 | 9.7 | 19.3 | 0.00 | 0.00 | 0.00 | 38 | 1004.6 |
| 20260504191003 | 23 | 251 | 4.8 | 16.1 | 0.00 | 0.00 | 0.00 | 41 | 1004.7 |
| 20260504190003 | 22 | 238 | 1.6 | 16.1 | 0.00 | 0.00 | 0.00 | 44 | 1004.8 |
| 20260504185503 | 22 | 298 | 11.3 | 32.2 | 0.00 | 0.00 | 0.00 | 40 | 1004.8 |
| 20260504184503 | 22 | 250 | 6.4 | 22.5 | 0.00 | 0.00 | 0.00 | 43 | 1005.1 |
| 20260504184003 | 22 | 184 | 8.0 | 20.9 | 0.00 | 0.00 | 0.00 | 43 | 1005.1 |
| 20260504183503 | 22 | 260 | 8.0 | 19.3 | 0.00 | 0.00 | 0.00 | 43 | 1005.3 |
| 20260504183004 | 22 | 196 | 8.0 | 19.3 | 0.00 | 0.00 | 0.00 | 44 | 1005.3 |
| 20260504182503 | 22 | 255 | 8.0 | 22.5 | 0.00 | 0.00 | 0.00 | 44 | 1005.4 |
| 20260504182003 | 22 | 217 | 4.8 | 22.5 | 0.00 | 0.00 | 0.00 | 47 | 1005.3 |
| 20260504181503 | 22 | 185 | 4.8 | 24.1 | 0.00 | 0.00 | 0.00 | 46 | 1005.3 |
| 20260504181004 | 22 | 210 | 8.0 | 24.1 | 0.00 | 0.00 | 0.00 | 43 | 1005.3 |
| 20260504180503 | 22 | 233 | 8.0 | 20.9 | 0.00 | 0.00 | 0.00 | 44 | 1005.4 |
| 20260504180003 | 22 | 276 | 8.0 | 25.7 | 0.00 | 0.00 | 0.00 | 43 | 1005.4 |
| 20260504175503 | 22 | 200 | 4.8 | 19.3 | 0.00 | 0.00 | 0.00 | 47 | 1005.5 |
| 20260504175003 | 22 | 190 | 8.0 | 19.3 | 0.00 | 0.00 | 0.00 | 45 | 1005.4 |
| 20260504174504 | 22 | 234 | 3.2 | 20.9 | 0.00 | 0.00 | 0.00 | 46 | 1005.6 |
| 20260504174003 | 22 | 258 | 6.4 | 19.3 | 0.00 | 0.00 | 0.00 | 45 | 1005.6 |
| 20260504173503 | 22 | 224 | 4.8 | 14.5 | 0.00 | 0.00 | 0.00 | 45 | 1005.6 |
| 20260504173003 | 22 | 227 | 3.2 | 12.9 | 0.00 | 0.00 | 0.00 | 46 | 1005.7 |
| 20260504172503 | 22 | 213 | 4.8 | 11.3 | 0.00 | 0.00 | 0.00 | 47 | 1005.7 |
| 20260504172004 | 21 | 173 | 4.8 | 9.7 | 0.00 | 0.00 | 0.00 | 49 | 1005.7 |
| 20260504171003 | 21 | 252 | 4.8 | 8.0 | 0.00 | 0.00 | 0.00 | 49 | 1005.7 |
| 20260504170504 | 21 | 205 | 3.2 | 19.3 | 0.00 | 0.00 | 0.00 | 48 | 1005.9 |
| 20260504150504 | 18 | 191 | 3.2 | 16.1 | 0.00 | 0.00 | 0.00 | 50 | 1006.7 |
| 20260504141003 | 17 | 239 | 1.6 | 11.3 | 0.00 | 0.00 | 0.00 | 53 | 1006.7 |
| 20260504140504 | 17 | 225 | 8.0 | 19.3 | 0.00 | 0.00 | 0.00 | 50 | 1006.8 |
| 20260504110503 | 11 | 159 | 1.6 | 4.8 | 0.00 | 0.00 | 0.00 | 60 | 1007.4 |
| 20260504100503 | 10 | 205 | 1.6 | 8.0 | 0.00 | 0.00 | 0.00 | 62 | 1007.4 |